This demonstration page uses our WeatherBlox Daily Observations layout. Learn more.

Left ArrowRight Arrow

38.20091, -84.87328

Hourly Observations for July 6, 2021

Temp ( °F °C ) Dew Point ( °F °C ) Humidity (%) Winds ( mph kmh ) Pressure ( in mb ) Visibility ( mi km ) Precip ( " mm )
12:53 am 00:53 Clear 75 23.9 72 22.2 90 90 NNW 3 6 30.06 1018 8 13 0.00 0.00
1:53 am 01:53 Clear 73 22.8 71 21.7 94 94 Calm 30.06 1018 7 11 0.00 0.00
2:53 am 02:53 Clear with Mist and Fog 73 22.8 72 22.2 96 96 Calm 30.06 1018 5 8 0.00 0.00
3:53 am 03:53 Clear with Mist and Fog 72 22.2 70 21.1 94 94 Calm 30.06 1018 6 10 0.00 0.00
4:53 am 04:53 Clear 71 21.7 69 20.6 94 94 Calm 30.06 1018 7 11 0.00 0.00
5:26 am 05:26 Clear with Mist and Fog 71 21.7 69 20.6 94 94 Calm 30.07 1018 3 4 0.00 0.00
5:33 am 05:33 Clear with Mist and Fog 71 21.7 69 20.6 94 94 Calm 30.07 1018 6 10 0.00 0.00
5:53 am 05:53 Clear with Mist and Fog 71 21.7 69 20.6 94 94 Calm 30.06 1018 2 2 0.00 0.00
5:58 am 05:58 Clear with Mist and Fog 71 21.7 70 21.1 96 96 Calm 30.07 1018 1 1 0.00 0.00
6:04 am 06:04 Clear with Mist and Fog 71 21.7 69 20.6 94 94 Calm 30.07 1018 1 2 0.00 0.00
6:08 am 06:08 Clear with Mist and Fog 71 21.7 69 20.6 94 94 Calm 30.07 1018 3 5 0.00 0.00
6:53 am 06:53 Sunny with Mist and Fog 71 21.7 69 20.6 94 94 Calm 30.08 1019 5 8 0.00 0.00
7:53 am 07:53 Sunny 74 23.3 71 21.7 91 91 Calm 30.08 1019 7 11 0.00 0.00
8:53 am 08:53 Sunny 79 26.1 72 22.2 79 79 Calm 30.10 1019 9 14 0.00 0.00
9:53 am 09:53 Sunny 84 28.9 72 22.2 67 67 Calm 30.11 1020 10 16 0.00 0.00
10:53 am 10:53 Sunny 87 30.6 71 21.7 59 59 N 5 7 30.10 1019 10 16 0.00 0.00
11:53 am 11:53 Mostly Cloudy 88 31.1 70 21.1 55 55 VRB 5 7 30.09 1019 10 16 0.00 0.00
12:53 pm 12:53 Sunny 90 32.2 69 20.6 50 50 N 5 7 30.08 1019 10 16 0.00 0.00
1:53 pm 13:53 Sunny 90 32.2 71 21.7 54 54 WNW 5 7 30.06 1018 10 16 0.00 0.00
2:53 pm 14:53 Mostly Sunny 89 31.7 71 21.7 55 55 WSW 3 6 30.04 1017 10 16 0.00 0.00
3:29 pm 15:29 Partly Cloudy with Nearby Thunderstorms 91 32.8 71 21.7 52 52 NE 6 9 30.02 1016 10 16 0.00 0.00
3:44 pm 15:44 Mostly Cloudy 90 32.2 70 21.1 52 52 VRB 5 7 30.02 1017 10 16 0.00 0.00
3:51 pm 15:51 Partly Cloudy with Nearby Thunderstorms 90 32 70 21 52 52 E 5 7 30.03 1017 10 16 0.00 0.00
3:53 pm 15:53 Partly Cloudy with Nearby Thunderstorms 90 32.2 71 21.7 54 54 ESE 8 13 30.06 1018 10 16 0.00 0.00
4:09 pm 16:09 Mostly Cloudy with Thunderstorms 78 25.6 62 16.7 58 58 S 24 39 30.05 1017 8 13 0.00 0.00
4:16 pm 16:16 Mostly Cloudy with Strong Thunderstorms 73 22.8 64 17.8 74 74 SSW 23 37 30.05 1018 2 3 0.06 1.52
4:22 pm 16:22 Cloudy with Strong Thunderstorms 72 22.2 63 17.2 73 73 SW 14 22 30.06 1018 1 1 0.26 6.60
4:34 pm 16:34 Cloudy with Strong Thunderstorms 72 22.2 67 19.4 84 84 WSW 10 17 30.04 1017 1 2 0.44 11.18
4:38 pm 16:38 Cloudy with Thunderstorms 71 21.7 67 19.4 87 87 W 9 15 30.04 1017 3 5 0.44 11.18
4:53 pm 16:53 Mostly Cloudy with Thunderstorms 73 22.8 67 19.4 81 81 undefined N/A 30.04 1017 10 16 0.45 11.43
5:03 pm 17:03 Partly Cloudy with Nearby Thunderstorms 73 22.8 68 20 84 84 Calm 30.03 1017 10 16 0.00 0.00
5:30 pm 17:30 Sunny 74 23.3 71 21.7 91 91 NW 5 7 30.02 1017 10 16 0.00 0.00
5:37 pm 17:37 Sunny with Nearby Thunderstorms 74 23.3 70 21.1 88 88 ENE 6 9 30.02 1017 10 16 0.00 0.00
5:53 pm 17:53 Sunny 75 23.9 70 21.1 84 84 SSE 3 6 30.03 1017 10 16 0.00 0.00
6:53 pm 18:53 Sunny 76 24.4 70 21.1 82 82 Calm 30.04 1017 10 16 0.00 0.00
7:53 pm 19:53 Sunny 75 23.9 71 21.7 88 88 Calm 30.02 1017 10 16 0.00 0.00
8:53 pm 20:53 Sunny 74 23.3 71 21.7 91 91 Calm 30.01 1016 9 14 0.00 0.00
9:53 pm 21:53 Clear 74 23.3 71 21.7 91 91 Calm 30.01 1016 10 16 0.00 0.00
10:53 pm 22:53 Clear 72 22.2 70 21.1 94 94 Calm 30.03 1017 9 14 0.00 0.00

Powered by AerisWeather